Home > Weather > Saint Helier > Past weeks

Flag for Jersey Weather for the Past 2 Weeks in Saint Helier, Jersey

Now
43 °F

Scattered showers. Scattered clouds.


Feels Like: 35 °F
Forecast: 44 / 46 °F
Wind: 17 mph from West

Location: Jersey Airport

Current Time: Feb 10, 2016 at 1:54:57 PM

Latest Report: Feb 10, 2016 at 1:20 PM


Visibility: N/A

Pressure: 29.59 "Hg

Humidity: 81%

Dew point: 37 °F

Location of Saint HelierLocation

Historic Weather in Saint Helier — Graph

°F

Saint Helier Temperature Yesterday

Maximum temperature yesterday: 45 °F (at 3:50 AM)
Minimum temperature yesterday: 39 °F (at 11:20 AM)
Average temperature yesterday: 42 °F

High & Low Weather Summary for the Past Weeks

 TemperatureHumidityPressure
High54 °F (Jan 27, 9:20 AM)100% (Jan 27, 4:50 AM)30.51 "Hg (Jan 27, 4:50 AM)
Low39 °F (Feb 3, 6:20 AM)61% (Feb 3, 7:50 AM)29.15 "Hg (Feb 9, 6:20 AM)
Average48 °F87%29.96 "Hg
* Reported Jan 26 12:20 PM — Feb 10 12:50 PM, Saint Helier, Weather by CustomWeather, © 2016

Note: Actual official high and low records may vary slightly from our data, if they occured in-between our weather recording intervals... More about our weather records

Advertising

Saint Helier Weather History for the Previous 24 Hours

 ConditionsComfort  
Time TempWeatherWind HumidityBarometerVisibility
12:50 PM
Wed, Feb 10
39 °FRain showers. Partly sunny.20 mph87%29.59 "HgN/A
12:20 PM48 °FScattered clouds.18 mph71%29.59 "HgN/A
11:50 AM46 °FScattered clouds.20 mph76%29.56 "HgN/A
11:20 AM46 °FPassing clouds.20 mph66%29.56 "HgN/A
10:50 AM45 °FPassing clouds.21 mph66%29.56 "HgN/A
10:20 AM46 °FPassing clouds.26 mph66%29.56 "HgN/A
9:50 AM46 °FScattered clouds.22 mph66%29.53 "HgN/A
9:20 AM45 °FPassing clouds.18 mph71%29.53 "HgN/A
8:50 AM43 °FPassing clouds.24 mph76%29.53 "HgN/A
8:20 AM43 °FPassing clouds.24 mph76%29.53 "HgN/A
7:50 AM41 °FScattered showers. Passing clouds.22 mph81%29.53 "HgN/A
7:20 AM43 °FScattered showers. Passing clouds.18 mph71%29.53 "HgN/A
6:50 AM43 °FPassing clouds.25 mph76%29.53 "HgN/A
6:20 AM41 °FScattered showers. Passing clouds.24 mph81%29.53 "HgN/A
5:50 AM41 °FRain showers. Passing clouds.16 mph76%29.53 "Hg6 mi
5:20 AM43 °FScattered showers. Passing clouds.28 mph76%29.50 "HgN/A
4:50 AM43 °FScattered showers. Passing clouds.21 mph71%29.50 "HgN/A
4:20 AM43 °FPassing clouds.23 mph71%29.50 "HgN/A
3:50 AM43 °FScattered showers. Passing clouds.20 mph71%29.50 "HgN/A
9:20 PM
Tue, Feb 9
41 °FPassing clouds.23 mph81%29.42 "HgN/A
8:50 PM43 °FScattered showers. Passing clouds.24 mph71%29.42 "HgN/A
8:20 PM41 °FPassing clouds.18 mph76%29.42 "HgN/A
7:50 PM41 °FHail. Passing clouds.24 mph81%29.42 "Hg3 mi
7:20 PM41 °FSprinkles. Passing clouds.20 mph76%29.39 "HgN/A
6:50 PM43 °FPassing clouds.29 mph76%29.39 "HgN/A
6:20 PM41 °FScattered showers. Passing clouds.26 mph81%29.36 "HgN/A
5:50 PM41 °FPassing clouds.28 mph81%29.36 "HgN/A
5:20 PM39 °FSprinkles. Passing clouds.24 mph87%29.33 "HgN/A
4:50 PM39 °FSleet. Partly sunny.28 mph93%29.33 "HgN/A
4:20 PM41 °FScattered showers. Passing clouds.13 mph81%29.30 "HgN/A
3:50 PM41 °FScattered showers. Passing clouds.24 mph87%29.27 "HgN/A
3:20 PM41 °FSprinkles. Scattered clouds.13 mph87%29.27 "HgN/A
2:20 PM39 °FRain showers. Partly sunny.20 mph93%29.24 "Hg4 mi
1:20 PM43 °FPassing clouds.17 mph87%29.21 "HgN/A
Weather by CustomWeather, © 2016

See weather overviewHow to use our weather pages